dimanche 28 Mai 17
09 : 00

description de la course => Le trail des myrtilles propose 3 courses

– Le Suc au May (9km ; 350m D-) Départ à 10h15 du Suc au May, départ navettes pour cette course à 9h15 depuis Chaumeil 
Parcours unique permettant de découvrir la pratique du trail et la course nature avec un départ majestueux où vous pourrez apprécier une vue à 360°,alt 908m. Des passages dans la lande des monédières, une traversée de ruisseau et une forêt de résineux vous amèneront à l’arrivée à Chaumeil après 350m de dénivelé négatif.
2 ravitaillements

– La Monédière (19km ; 600m D+) Départ à 09h00 et arrivée à Chaumeil
Après 2km d’échauffement, un sentier sinueux et une monotrace dans les bruyères vous voici déjà à découvert et vous profiterez alors pleinement du panorama qui s’offre à vous.
Passage au Suc au May, et au Puy de Chauzeix avant de redescendre vers la ferme de la Monédière (dernier producteur de myrtilles sauvages). L’arrivée sera jugée dans le typique village de Chaumeil.
3 ravitaillements

– Le Treffy (29km ; 950m D+) Départ à 09h00 et arrivée à Chaumeil
En individuel ou à partager à 3 (équipe), vous explorerez alors ce qui fait l’essence même des Monédières, single, montées sèches, traversées de ruisseaux, passages techniques et découverte de contrée jusque là inexplorée en trail.
4 ravitaillements
Des navettes obligatoires et gratuites sont mises à disposition des coureurs à partir de Chaumeil.

Remise des récompenses à 13h

A l’arrivée, les producteurs locaux du PNR (Parc Naturel Régional de Millevaches Monédières) vous proposent un repas où vous apprécierez leur savoir faire.

atouts => Nouveau parcours ouvert à toutes et tous avec un tracé sur mesure en fonction de vos envies. Repas à l’arrivée.

Réservations des repas sur jorganize PAS DE RESERVATION LE JOUR DE LA COURSE.

tarifs:
-8 euros pour le 9km+ 2euros sur place
-10 euros pour le 19km+ 2euros sur place
-12 euros pour le 29km+ 2euros sur place
-5 euros pour la randonnée pédestre
-GRATUIT pour la course enfants
-10.5 euros pour le repas de producteurs (repas servi dès l’arrivée des concurrents)
-5 euros pour le repas enfant
mail organisation => traildesmyrtilles@gmail.com
phone organisation => 0613572790

challenge => MLK trail 2017, CDCHS 2017

courses enfants => oui

remises des prix => 3 au scratch – 0 par catégorie

pratique => parking, vestiaires, toilettes, douches, repas possible sur place, buvette






Informations :

anninscverif
Inscription en ligne arrétée le 27/05/2017 à 20:00
ClDosNomVoirTempsS.Cat.CC.Club-
1133MURZIN Benjamin01:38:08 MSE1
2125SAGE Jerome01:39:10 MV11
325CEYRAT Nicolas01:40:01 MJU1DORDOGNE ANIMATIONS
4135DEMARET Jonathan01:40:18 MSE2S/L ES USSEL
5107TERMENIERE Valentin01:40:40 MES1
673LEMEE Stephane01:41:51 MV12S/L TULLE AC
737DEJAMMES Jean01:47:30 MSE3dordogne animation
8134JUDET Arnaud01:51:10 MV13tulle triathlon
998ROUX Bernard01:53:46 MV14
10118ROBERT Didier01:54:07 MV15S/L ES USSEL
11124BOIS Daniel01:55:06 MV21S/L TULLE AC
12106TAVE Antoine01:55:15 MV16S/L TULLE AC
1333DAUZIER Regis01:55:15 MSE4
1453FOUILLADE Thierry01:56:00 MV17S/L ATHLETISME ST PANTALEON
1515BOURIN Philippe01:56:03 MV18S/L TULLE AC
1643DUCOTE Christophe01:56:47 MV19S/L ATHLETISME ST PANTALEON
17100SALLES Francois01:56:59 MSE5S/L TULLE AC
186BESSE Jean-pierre01:57:14 MV31S/L ES USSEL
1954GANNAC Sylvain01:57:30 MV110
2092POULET Marc01:57:39 MV111AS LEGRAND
21112TREMOULIERE Christian01:57:57 MV32
22128MOSMEAU Christelle01:58:15 FV11cap veyrac 87
2369LAVAL Patrick01:58:56 MV112TULLE AC
2463JACQUET Eddie01:59:27 MV113LIMOGES ATHLE*
2576LESCURE Stephane02:00:39 MV114donzenac oxygene
2685NOEL Denis02:00:56 MV115S/L TULLE AC
27108TRIGUEROS Yan02:01:14 MSE6les petits pedestres
28115LAURENT Maxime02:04:34 MJU2
294BASSET Jean-paul02:05:17 MV22S/L ES USSEL
30111VERGE Marc02:06:48 MV23
318BOIRON Eric02:06:54 MV116S/L TULLE AC
3232DAURAT Stéphane02:07:16 MV117
3372LEMAIRE Franck02:07:21 MV118
3421CAPELLE Veronique02:07:23 FV12S/L ATHLETISME ST PANTALEON
3535DECELLE Bernard02:07:25 MV24S/L ATHLETISME ST PANTALEON
367BINET Solene02:08:01 FJU1S/L ACJ CHANTEIX
37127LEJEUNE Pierre02:08:04 MV119cap veyrac 87
3851FIALIP Fabrice02:08:15 MV120DORDOGNE ANIMATIONS
3982MONTIS Christophe02:08:16 MV121VERNEUIL OXYGENE
4096ROUBEYRIE Daniel02:08:36 MV33
4199ROUX Eric02:08:38 MV25
4255GENET Romain02:08:39 MSE7VERNEUIL OXYGENE
43120VOLKOV Antyon02:09:51 MSE8ydes ac
4497ROUSSEAU Florent02:09:55 MV122S/L TULLE AC
45575VERLHAC Stephane02:09:55 MV123
46123VACHERIE Vincent02:09:58 MV124
4711BOUCHARENC Philippe02:10:00 MV125bio'phil philippe boucharenc
48139NOAILHAC Bruno02:10:04 MV126
493BASSALER Ludovic02:10:42 MV127
5030CORBEIL Thomas02:10:50 MES2
5131DACOSTA Fred02:11:07 MV128lagraulenature
5281MEILHAC Didier02:11:20 MV129argentat
53122MAS Serge02:11:26 MV26
5489PEYRAUD Sylvain02:13:02 MSE9
5542DIF Romain02:13:26 MSE10
5627CHAUSSADE Yannick02:13:53 MV130ASSOCIATION SPORTIVE LA MADICO
572BARRY Jean marie02:13:57 MV27
5862JABELOT Olivier02:14:10 MV131
5995ROTH Regine02:14:13 FV21S/L ES USSEL
60110VALBON Ludovic02:16:05 MV132
6144DUPONT Dominique02:16:08 MV28
6256GIBAUD Joël02:16:10 MV29
6360GRELLET Pascal02:16:28 MV210fsc uzerche nature passion
6468LARUE Gilles02:16:38 MV133lagraule nature
65117FORTIN Christophe02:16:55 MV134
6671LE MAGUET Aurelien02:16:56 MV135S/L TULLE AC
675BERTHUIT Yannick02:17:10 MV136
68136CEROUX Philippe02:17:11 MV137
6975LESCURE Ludovic02:17:32 MSE11S/L TULLE AC
7022CARBONNEL Sophie02:17:40 FV22
71576PAILLER Christian02:17:41 MV34
72130ANTRYGUE Corinne02:17:43 FV13
7361HALLIER Jean marie02:17:47 MSE12
74102SEGRETAIN Patrick02:17:51 MV138
7584MORAINE Caroline02:18:50 FSE1S/L TULLE AC
7659GONOD Magali02:18:54 FV14TAC
77131MAIZAUD Thierry02:19:13 MSE13BACK TO THE RUN
7878LOPES Franck02:19:23 MV139
7917BRICE Patrick02:19:37 MV211
8083MONTIS Francoise02:19:45 FV15VERNEUIL OXYGENE
8186PAIRAT Stephane02:19:55 MV140limoges mud run
82137PECHADRE Pierre02:20:59 MES3
83126MARTIN Elodie02:20:59 FSE2
8410BOSSOUTROT Ludovic02:22:15 MSE14la graule nature
8574LEPORE Eric02:22:20 MV212S/L PAYS DE BRIVE ATHLETIQUE C
8679LOPEZ Blandine02:22:23 FV16ASSOCIATION SPORTIVE LA MADICO
8729COMBES Regis02:23:08 MV141
8847EMERY Philippe02:23:21 MV213
8988PEYNICHOU Audrey02:23:52 FSE3S/L TULLE AC
9094REZÉ Benoît02:24:43 MV142
9119CAIROLA Sylvain02:24:47 MV214AG PIERRE BUFFIERE
9212BOUILLAGUET Alain02:25:40 MV35KM 19 BRANCEILLES
93138BRETTE Jean baptiste02:25:53 MES4
9426CHALAUD Corinne02:26:54 FV23lagraule nature
9516BREUIL Sebastien02:27:15 MV143
96104SOULARUE Frédéric02:27:33 MV144
9741DEMOULIN Anthony02:27:48 MSE15
9814BOURGE Frédéric02:28:15 MV145
9918BROUSSE Helene02:28:52 FV24S/L TULLE AC
100121ALLEGRANZA Guillaume02:29:08 MV215S/L ATHLETISME ST PANTALEON
10138DELAGE Didier02:29:41 MV36uzerche nature passion
10291PISTER Pierre02:30:06 MV37
10328COMBASTEIL Nadine02:30:14 FV25S/L ATHLETISME ST PANTALEON
104129FARGES Xavier02:31:42 MV146
10593RAIA Hubert02:31:43 MV147repro 19
10666LAGARDE Emmanuel02:31:47 MV148
10724CAZELLES-SERIN Marie-amelie02:32:04 FSE4S/L ATHLETISME ST PANTALEON
108109UGUEN Francois02:32:16 MV38les muscles
109101SCREVE Ophélie02:32:43 FSE5
110114PHELIZON Isabelle02:33:09 FV17S/L CA BRIVE
11145DURAND Messaline02:34:30 FSE6
11258GLENAT Lydie02:34:35 FSE7
11340DE LAUNAY Yves02:35:12 MSE16
11439DE LAUNAY Emilie02:35:12 FSE8
11580MAS Magalie02:35:28 FSE9
11652FLANDRINCK Laetitia02:36:05 FV18S/L TULLE AC
11746EGOUX Christophe02:36:54 MV149lagraule nature
118113MASDUPUY Sandra02:38:20 FSE10
11977LONGOUR Murielle02:38:52 FV19S/L TULLE AC
1201ALBA Sebastien02:39:27 MSE17
12136DECELLE Martine02:39:28 FV26S/L ATHLETISME ST PANTALEON
12265JAMMOT Isabelle02:39:30 FV110AG PIERRE BUFFIERE
123119BRE Robert02:43:46 MV41
12464JACQUET Emmanuel02:44:12 MV150
1259BONNEAU Gaelle02:44:45 FSE11
12620CAPELLE Alain02:45:04 MV216
12750FERNANDES Tony02:45:18 MSE18spiridon 87
12813BOUILLAGUET Christiane02:46:36 FV31KM 19 BRANCEILLES
129132MINIER Marie-laure02:49:07 FSE12
13087PARIZOT David02:57:46 MV151S/L ATHLETISME ST PANTALEON
131116COUVIDAT Georges02:58:58 MV39S/L ATHLETISME ST PANTALEON
13257GIBAUD Pascale03:02:27 FV27
133105SOULIE Jean-jacques03:02:51 MV42KM 19 BRANCEILLES
134103SERVANTIE Richard03:19:55 MV217
13548FAURE Alain03:59:19 MV218


42 Comments.

  • Diaz says:

    Parcours superbe, j’ai fait le Treffy (29).
    Petit bémol sur le balisage hors piste. Je m’explique, on avait à suivre les rubalises rouge et blanche. Par contre quand on quitte un sentier principal c’est un peu dur de les trouver. Je me suis fait avoir juste avant le ravitaillement du puy Charin, j’ai faillit me faire avoir lors du détour du 19 avant le ravitaillement de la ferme des monédières et un copain à moi s’est fait avoir après la table d’orientation.
    On sent bien que c’est la première mais c’est le temps que les choses se mettent en place. Je m’explique: pour l’inscription on était un peu tassé alors que la place ne manquait pas. Pour les ravitaillements communs aux trois courses il y avait crainte de pénurie par les bénévoles. en même temps c’était un jour de grosse chaleur. Je n’ai pas de leçon à donner je fais juste la remarque pour qu’elle soit constructive.
    Pour finir, si vous trouvez le courage pour organiser une seconde édition, je serais de la partie.
    Merci encore pour ce trail.

    • Trail des Myrtilles says:

      Bonjour,
      Merci pour votre commentaire qui va nous faire progresser assurément. A l’année prochaine

  • EBREN Françoise says:

    Bravo à tous et à toutes, ambiance super, organisation au top, j’y croyais pas en apprenant qu’il s’agissait là d’une première !!! la gentillesse et l’humilité étaient omniprésentes, donc en espérant vous revoir l’année prochaine. Encore merci pour votre accueil.

  • didier says:

    Bonsoir,

    Super parcours malgré mon abandon aux 12 Kms suite à une entorse
    Félicitation à Laurent et aux bénévoles
    Super repas
    et à l’année prochaine

  • pister says:

    Un gros bravo à Laurent qui, pour sa première s’est bien(débrouillé) et de plus avec pas mal de coureur au départ, les douches à proximité super, le petit repas également…….dommage que Gérard n’était pas là pour les premiers du19km….décalage du départ des 9km, il n’a pas pu être là à temps, mais quoi qu’il en soit pour une première c’était vraiment très bien, à refaire absolument, très bonne ambiance conviviale, le temps était pour nous, et le panorama extra avec le petit vent pour un peu vous rafraîchir …. bravo BRAVO……… LAURENT

  • GRELLET Pascal says:

    Bravo aux organisateurs j’ ai pris beaucoup de plaisir ç ourrir à travers cette belle Correze des monédiéres.

    Merci encore et à l’année prochaine bien évidemment

  • PLAS says:

    Super parcours

  • MICHEL says:

    Un grand merci à tous les bénévoles et à Laurent qui nous a tracé des parcours très sympas. Le cadre était superbe surtout avec le beau temps qui était au rendez vous. Une suggestion pour le balisage : il existe de la rubalise rouge et jaune fluo qui se voit mieux dans les bois. Un ou 2 passages étaient limites en terme de balisage, il faudrait juste confirmer 5 mètres après le changement de direction qu’on est sur la bonne voie en mettant une rubalise.
    Sinon rien à redire en terme d’organisation. Merci encore à vous tous.

    • Trail des Myrtilles says:

      merci pour l’idée de la rubalise

      • Pascal Rigoux says:

        Félicitations et encore merci à l’organisateur et à tous les bénévoles ! Le parcours était vraiment super !
        J’ai pris énormément de plaisir à parcourir mon pays natal des Monédières. J’ai même eu l’agréable surprise de decouvrir quelques sentiers que je n’avais jamais parcouru à peid ou à VTT.
        Pour une première, lorganisation était vraiment parfaite !
        Si je devais faire une remarque, un seul petit bémol pour moi, je rejoindrais la remarque sur le balisage en terme de visibilité et de fréqence. Les rubalises étaient souvent trés courtes et ainsi pas trés visbles. Et j’ai souvent perdu un peu de temps pour repérer la bonne direction. Heureusement que j’avais un coéquipier avec une meilleure vue que moi ! Et que le chron m’importait peu…
        Rien de bien grave en somme. J’ai passé une matinée géniale !
        Encore merci d’avoir eu cette idée et de l’avoir réalisée avec une aussi belle réussite !

  • BASTIDON PATRICK says:

    Merci beaucoup à toi Laurent pour cette merveilleuse organisation et ce sublime paysage traversé . Pour moi c’était une course de reprise et le challenge est réussi , je pense que je vais retomber dans la marmite de la course à pied !!! A bientôt le plaisir de te voir à la Vie Claire à Malemort et surtout vivement l’année prochaine !! Amicalement à toi et à tout ton staff ! Patrick.

  • BERGEAL Gilles says:

    Un grand bravo à Laurent et sa super équipe pour cette très belle première ! Que d’énergie et de motivation pour en arriver là et gérer 3 (superbes) parcours, plus de 400 concurrents, la logistique des repas et des navettes… Vous n’aviez pas choisi la facilité mais pouvez être fiers de votre beau bébé ! Les premières éditions sont toujours riches d’enseignements et vous savez comment le faire grandir !
    Bien sportivement Gilles

    • Trail des Myrtilles says:

      merci Gilles. On va en effet tout faire pour vous satisfaire pleinement.
      A bientôt

  • Pliot marc says:

    Re
    Oups !!!! Dans mes remerciements et félicitations, j’ai oublié Christophe, Isabelle et peut être Paul (?) de Jorganize, qui transforme ce qui pourrai se comparer à une usine à Gaz, en courses parfaitement orchestrées, chapeau la belle équipe !!!!
    Marc

  • Lescure says:

    Merci pour ce bon moment et félicitations aux organisateurs !!!
    À l année prochaine

  • VALLEE Marie-Annette says:

    Merci à Laurent et à tous les bénévoles. D’accord pour recommencer l’année prochaine.
    Une Chaumeilloise enthousiaste.

  • Terrou André says:

    Bravo à tous les organisateurs, bénévoles, speakers et membres de Jorganize pour cette « première ».
    Franchement avec tous les paramètres propres à cette course : (déplacement en bus pour le 9 km, site exceptionnel, gentillesse des bénévoles etc… cette journée a tout pour devenir une course incontournable
    dans le calendrier des courses hors stade. A bientôt.

  • JP says:

    Remercions les bénévoles, organisateurs, l’équipe Saramagbelle et tous ceux que je ne connais pas pour cette belle première édition qui fut une réussite.
    Certes, le balisage n’était pas parfait à certains endroits, les rubalises n’étaient pas très visibles… mais cela aura été une belle journée dans l’ensemble. Et puis, la première édition n’est jamais parfaite sinon il n’y aurait pas d’axes d’amélioration pour les années suivantes…
    Bravo à tous pour nous avoir fait connaitre des paysages sublimes. A l’année prochaine.

  • marie says:

    Une journée parfaite !!!
    Oh biensur , il faisait chaud , c’etait difficile à certains moments mais les paysages sont vraiment magnifiques , les benevoles et toute l’équipe de Laurent hyper sympa , un repas de producteur très bon , Gerard au micro …. bref , ne changez rien et on reviendra ! Merci pour cette journée que j’ai pu passer en famille (bravo aussi pour les courses enfants , les médailles et les chocolats 😉 ) et entre amis.

  • roux Bernard says:

    Bonjour,

    Je remercie les bénévoles pour le temps qu’ils ont passé pour préparer la course. Tous ceux que j’ai croisé sur le parcours ont été très serviables et très sympathiques.
    Les paysages étaient magnifiques, le parcours difficile mais on était venu un peu pour cela..

    Sinon le balisage a parfois manqué un petit peu de clarté (il aurait peut-être parfois mieux valu flécher en plus gros les endroits stratégiques). Je ne me suis pas pour autant perdu …Ca a apporté du piquant à la fin de la course où j’ai ressenti de grands moments de solitudes entre 2 balises..

    Je reviendrai l’année prochaine

  • roux Bernard says:

    Bonjour,

    Je remercie les bénévoles pour le temps qu’ils ont passé pour préparer la course. Tous ceux que j’ai croisé sur le parcours ont été très serviables et très sympathiques.
    Les paysages étaient magnifiques, le parcours difficile mais on ét

    Sinon le balisage a parfois manqué un petit peu de clarté (il aurait peut-être parfois mieux valu flécher en plus gros les endroits stratégiques). Je ne me suis pas pour autant perdu …Ca a apporté du piquant à la fin de la course où j’ai ressenti de grands moments de solitudes entre 2 balises..

    Je reviendrai l’année prochaine

  • Pliot marc says:

    Bonjour
    Je remerciais le 26 Mars, entre autres, Laurent DIOT pour cette excellente initiative de nous faire connaitre un autre versant du massif des Monédières, mon anticipation à le remercier était amplement justifier ….. Que ce soit toi, toute ta famille, l’équipe de Saramagbelle qui a eu raison de faire confiance à ton sens inné de l’ organisation, quasiment sans failles ( que celui qui pensait que les 400 concurrents seraient atteins, lève la main ) de même que l’ensemble des bénévoles ou de vos sponsors, je vous dit BRAVO et merci, quelle belle fête que cette journée, tout y était, le sport, la convivialité, la gentillesse, la découverte de sentiers inconnus par la plupart d’entre nous avec de sublimes panoramas, la générosité ( n’oublions pas SARAMAGBELLE ) l’animation avec l’ami Gérard et son assistant, et le beau temps qui ne pouvait faire autrement que d’être de la partie. Avec l’expérience acquise lors de cette première, qu’est ce que cela vas donner l’an prochain, l’apothéose à n’en pas douter.
    La vie est belle ….. mille merci à vous toutes et à vous tous
    Marc

  • Remi19 says:

    Parfait surtout pour une première

  • BORIE says:

    je me suis inscrite sur le 29 mais je voulais savoir s’il est possible éventuellement de « bifurquer » sur le 9 et ce en raison d’une petite blessure au genou ?

  • Hélène says:

    Bonjour,
    Puis je avoir plus d’explication concernant la randonnée « Le Chassagnol ».
    – heure de départ
    – lieu du départ
    – lieu d’arrivée
    – trajet
    – ravitaillement

    Cordialement

    • Trail des Myrtilles says:

      Bonjour,
      Le départ est libre à partir de 8h
      Le départ se fera de Chaumeil
      l’arrivée se situe au SUC au May
      La distance est de 9km
      Une navette vous attendra a l’arrivée pour vous redescendre à Chaumeil
      2 ravitaillements sont prévus sur le parcours+ un à l’arrivée à Chaumeil

      A bientot
      Laurent

  • Lucien says:

    Bonjour.
    A quelle heure est la course enfant? Ou se trouve le départ? Faut-il un certificat médical?
    Merci.

    • Trail des Myrtilles says:

      Bonjour,
      Horaire de la course enfants : 9h05 dans le bourg de Chaumeil, avec certificat médical ou licence.
      Bonne soirée
      Laurent

  • Didier says:

    Bonjour,
    Pour le 19 km vous parlez d’une arrivé à Chaumeil sans donner de précisions sur le départ. De plus vous mentionnez des navettes. Pourriez vous donner davantage d’explications svp.
    Merci et à dimanche.

    • Trail des Myrtilles says:

      Bonjour,
      Les navettes ne concernent que la course 9km.
      Pour les 19km et le 29km le départ est donné à Chaumeil à 9h et arrivée à Chaumeil.
      A bientôt
      Laurent

  • flo says:

    Bonjour, d’où se fait le départ du 29kms ? A quelle h partent les navettes ?

    Merci,

    • Trail des Myrtilles says:

      Les navettes ne concernent que la course 9km.
      Pour le 29km le départ sera donné à9h de Chaumeil.
      A bientôt
      Laurent

  • yan says:

    Bonjour,ma fille est de 2012,peut-elle faire son baptême de course à pied à Chaumeil?
    Merci de votre réponse.

    • Trail des Myrtilles says:

      Bonjour,
      Pour les enfants, les distances commencent à 400m donc ce sera avec plaisir de vous recevoir et de commencer la course à pied pour votre fille sur le TDM.
      A bientôt
      Laurent

  • Alexandre tulle AC says:

    Comment fait-on pour s’inscrire pour les repas? , impossible sur les inscriptions en ligne,très urgent car on part pour une semaine à l’étranger ce samedi matin, amicalement, gérard

    • jorganize says:

      Bonjour,
      les repas se prennent avec une inscription trail en ligne
      cordialement

    • Trail des Myrtilles says:

      Bonsoir,
      J’espère que vous avez pu vous inscrire, sinon voici le n° de l’organisation 06 13 57 27 90
      A bientôt
      Laurent

  • MORAINE Caroline says:

    BONJOUR

    J ai fait les 17 km hier… ce fut ma 2eme reconnaissance pour ce trail. La 1ere reco de décembre fut dur dans les jambes mais un réel sentiment de liberté avec évidemment une vue illimitée du haut du pont de vue donc le plaisir a remplacé les douleurs, la fatigue et fait oublier les difficultés
    Cette 2eme reco fut beaucoup plus facile et agréable, j’ai donc plus profiter du paysage et des pauses…. Merci à Laurent et à tous les coureurs car l’ambiance fut très bonne. Vivement le 16 avril pour la reco de la 2eme partie. N’oublies pas Laurent : à chaque pause : une tireuse !!! à très bientôt Caroline
    Serait il possible d’avoir les photos de la reco de samedi ?? (je suis une anti FACEBOOK. Merci

  • Pliot marc says:

    Bonjour
    Ce samedi 25 Mars, Laurent Diot, organisateur du trail des myrtilles, a organisé une reconnaissance du 9 et 19 Km. A titre personnel, je n’ai fait que le 9 Km, mais d’ores et déjà, je peut dire à tous les traileurs, les bons ou les petits dans mon style, que de ne pas être présent à l’une des 3 distances le matin du 28 Mai, serait une énorme erreur de leur part …… Quel terrain de jeux fabuleux que les Monédières, des paysages à vous donner envie de vous arrêter tellement c’est beau, et pour la petite distance, hormis une petite cote et un petit faux plat, très court, que du plat ou de la descente, la distance idéale pour une première. Félicitations à Laurent pour cette très bonne idée. Dorénavant, après le très beau trail « Millevaches monédières raidlight » du 22 Avril, les Monédières n’auront plus de secrets pour les coureurs grâce à cette nouvelle partie du massif, qui sera découverte le 28 Mai.
    Que les frères Desproges pour le 22 Avril et Laurent Diot pour le 28 Mai, soient remercier de faire connaitre le massif des Monédières de la sorte.
    Marc




Le resenti (3 choix possibles)

Loading ... Loading ...

Le parcours (4 choix possibles)

Loading ... Loading ...

Ravitaillement (3 choix possibles)

Loading ... Loading ...

Les récompenses (3 choix possibles)

Loading ... Loading ...

La météo (2 choix possibles)

Loading ... Loading ...